Location: Unspecified
(33.6682°S, 0.0000°E)
Time: 08:26:59
(UTC+00:00)

Vanguard 2 Rocket - Pass Details

Date: 27 June 2019
Orbit: 554 x 3326 km, 32.9° (Epoch: 23 July)

Event Time Altitude Azimuth Distance (km) Brightness Sun altitude
Rises 13:03:36 0° 257° (WSW) 5,254 10.8 31.2°
Reaches altitude 10° 13:07:59 10° 263° (W) 3,768 10.3 31.0°
Maximum altitude 13:16:02 38° 327° (NNW) 1,539 10.2 30.4°
Drops below altitude 10° 13:21:01 10° 35° (NE) 2,324 9.6 30.1°
Sets 13:23:08 0° 44° (NE) 3,057 9.9 29.9°
